Date String (YYYY-MM-DD hh:mm:ss) UTC,Instrument flags,Ambient pressure (hPa),Sample flow (lpm),Bypass flow (lpm),Sample temperature (°C),Ambient temperature (°C),ASC tube jacket temperature (°C),LED temperature (°C),Box temperature (°C),Sample RH (%),Span deviation,Mass concentration (μg/m³),Mass concentration (μg/m³),Mass concentration (μg/m³)
DateTimeUTC,F1_M11,P_M11,Q1_M11,Q2_M11,T1_M11,T2_M11,T3_M11,T4_M11,T5_M11,U1_M11,ZSPAN_M11,X0_M11,X2_M11,X1_M11
2023-05-16 13:00:00,,0835.2,5.01,0.00,28.1,26.6,00.0,36.3,29.7,28.9,0001.8,0008.80,0005.57,0005.19
2023-05-16 13:01:00,,0835.2,5.01,0.00,28.1,26.6,00.0,36.4,29.7,28.2,0001.5,0008.83,0005.64,0005.29
2023-05-16 13:02:00,,0835.2,5.00,0.00,28.1,26.6,00.0,36.4,29.7,27.9,0001.6,0008.89,0005.72,0005.37
2023-05-16 13:03:00,,0835.3,5.00,0.00,28.1,26.6,00.0,36.4,29.7,27.9,0001.5,0008.70,0005.90,0005.57
2023-05-16 13:04:00,,0835.4,5.01,0.00,28.1,26.6,00.0,36.4,29.7,28.6,0001.0,0008.72,0006.07,0005.77
2023-05-16 13:05:00,,0835.3,5.00,0.00,28.1,26.6,00.0,36.4,29.7,28.9,0000.5,0008.84,0006.32,0005.99
2023-05-16 13:06:00,,0835.3,5.00,0.00,28.1,26.6,00.0,36.4,29.8,29.1,0000.0,0009.12,0006.56,0006.23
2023-05-16 13:07:00,,0835.2,4.98,0.00,28.1,26.6,00.0,36.4,29.8,29.2,-000.4,0009.46,0006.84,0006.50
2023-05-16 13:08:00,,0835.2,4.99,0.00,28.1,26.6,00.0,36.4,29.8,28.0,-000.5,0009.61,0007.02,0006.70
2023-05-16 13:09:00,,0835.3,5.01,0.00,28.1,26.6,00.0,36.4,29.8,27.1,-000.9,0009.72,0007.11,0006.76
2023-05-16 13:10:00,,0835.2,5.01,0.00,28.2,26.6,00.0,36.4,29.8,27.8,-001.6,0009.62,0007.02,0006.68
2023-05-16 13:11:00,,0835.3,5.00,0.00,28.2,26.7,00.0,36.4,29.8,28.6,-001.7,0009.46,0006.90,0006.56
2023-05-16 13:12:00,,0835.3,5.00,0.00,28.2,26.7,00.0,36.4,29.8,28.5,-002.0,0009.45,0006.85,0006.49
2023-05-16 13:13:00,,0835.3,5.00,0.00,28.2,26.7,00.0,36.4,29.8,28.6,-002.0,0009.57,0006.93,0006.56
2023-05-16 13:14:00,,0835.3,5.00,0.00,28.2,26.7,00.0,36.5,29.8,29.1,-002.0,0009.76,0007.03,0006.65
2023-05-16 13:15:00,,0835.3,5.00,0.00,28.2,26.7,00.0,36.5,29.8,28.5,-001.6,0009.79,0007.07,0006.68
2023-05-16 13:16:00,,0835.3,4.99,0.00,28.2,26.7,00.0,36.5,29.8,28.1,-001.7,0009.79,0007.03,0006.65
2023-05-16 13:17:00,,0835.3,5.01,0.00,28.2,26.7,00.0,36.5,29.8,27.9,-001.5,0009.67,0006.94,0006.56
2023-05-16 13:18:00,,0835.3,5.01,0.00,28.2,26.7,00.0,36.5,29.8,28.6,-001.0,0009.49,0006.83,0006.46
2023-05-16 13:19:00,,0835.3,5.00,0.00,28.2,26.7,00.0,36.5,29.8,28.3,-000.8,0009.52,0006.80,0006.42
2023-05-16 13:20:00,,0835.4,5.00,0.00,28.2,26.7,00.0,36.5,29.9,27.2,-000.6,0009.56,0006.82,0006.44
2023-05-16 13:21:00,,0835.3,5.00,0.00,28.2,26.7,00.0,36.5,29.9,26.0,-000.7,0009.51,0006.77,0006.38
2023-05-16 13:22:00,,0835.3,5.00,0.00,28.2,26.7,00.0,36.5,29.9,26.4,-000.6,0009.44,0006.63,0006.23
2023-05-16 13:23:00,,0835.4,5.00,0.00,28.3,26.8,00.0,36.5,29.9,29.0,-000.3,0009.43,0006.62,0006.23
2023-05-16 13:24:00,,0835.5,5.00,0.00,28.3,26.8,00.0,36.5,29.9,28.6,-000.4,0009.28,0006.51,0006.11
2023-05-16 13:25:00,,0835.5,5.00,0.00,28.3,26.8,00.0,36.6,29.9,29.0,-000.3,0009.08,0006.40,0006.02
2023-05-16 13:26:00,,0835.5,5.00,0.00,28.3,26.8,00.0,36.6,29.9,29.7,-000.7,0009.05,0006.36,0005.96
2023-05-16 13:27:00,,0835.5,5.01,0.00,28.3,26.8,00.0,36.6,29.9,29.9,-000.6,0009.04,0006.44,0006.06
2023-05-16 13:28:00,,0835.5,5.01,0.00,28.3,26.8,00.0,36.6,29.9,29.3,-000.2,0009.28,0006.64,0006.25
2023-05-16 13:29:00,,0835.5,5.00,0.00,28.3,26.8,00.0,36.6,29.9,28.4,-000.4,0009.45,0006.72,0006.31
2023-05-16 13:30:00,,0835.5,4.99,0.00,28.3,26.8,00.0,36.6,29.9,28.0,-000.2,0009.38,0006.73,0006.34
2023-05-16 13:31:00,,0835.6,5.00,0.00,28.3,26.8,00.0,36.6,30.0,28.7,0000.1,0009.53,0006.84,0006.43
2023-05-16 13:32:00,,0835.5,5.01,0.00,28.3,26.9,00.0,36.6,30.0,29.1,-000.2,0009.66,0006.98,0006.58
2023-05-16 13:33:00,,0835.5,5.01,0.00,28.4,26.9,00.0,36.6,30.0,28.4,-000.4,0009.74,0007.14,0006.76
2023-05-16 13:34:00,,0835.5,5.01,0.00,28.4,26.9,00.0,36.6,30.0,28.9,-000.5,0010.20,0007.20,0006.80
2023-05-16 13:35:00,,0835.5,4.99,0.00,28.4,26.9,00.0,36.6,30.0,28.1,-000.7,0010.51,0007.22,0006.81
2023-05-16 13:36:00,,0835.5,4.99,0.00,28.4,26.9,00.0,36.7,30.0,28.3,-000.8,0010.52,0007.19,0006.75
2023-05-16 13:37:00,,0835.5,5.00,0.00,28.4,26.9,00.0,36.7,30.0,27.9,-000.7,0010.43,0007.09,0006.65
2023-05-16 13:38:00,,0835.5,5.00,0.00,28.4,26.9,00.0,36.7,30.0,28.4,-000.6,0010.72,0006.93,0006.47
2023-05-16 13:39:00,,0835.5,5.00,0.00,28.4,26.9,00.0,36.7,30.0,29.0,-001.0,0010.80,0006.69,0006.23
2023-05-16 13:40:00,,0835.5,5.01,0.00,28.4,26.9,00.0,36.7,30.0,27.9,-000.9,0010.62,0006.55,0006.09
2023-05-16 13:41:00,,0835.5,5.00,0.00,28.4,26.9,00.0,36.7,30.1,28.6,-000.8,0010.89,0006.45,0005.97
2023-05-16 13:42:00,,0835.5,5.00,0.00,28.4,26.9,00.0,36.7,30.1,28.7,-001.0,0010.92,0006.32,0005.84
2023-05-16 13:43:00,,0835.5,5.00,0.00,28.5,27.0,00.0,36.7,30.1,28.4,-000.9,0010.73,0006.16,0005.68
2023-05-16 13:44:00,,0835.5,5.00,0.00,28.5,27.0,00.0,36.7,30.1,28.4,-000.2,0010.65,0006.01,0005.51
2023-05-16 13:45:00,,0835.5,4.99,0.00,28.5,27.0,00.0,36.7,30.1,28.3,0000.0,0010.35,0005.83,0005.34
2023-05-16 13:46:00,,0835.5,5.00,0.00,28.5,27.0,00.0,36.7,30.1,27.8,0000.0,0009.68,0005.65,0005.16
2023-05-16 13:47:00,,0835.5,5.01,0.00,28.5,27.0,00.0,36.8,30.1,26.6,0000.0,0009.59,0005.48,0005.01
2023-05-16 13:48:00,,0835.5,5.00,0.00,28.5,27.0,00.0,36.8,30.1,28.3,0000.0,0009.52,0005.39,0004.90
2023-05-16 13:49:00,,0835.5,5.00,0.00,28.5,27.0,00.0,36.8,30.1,28.7,0000.0,0009.29,0005.28,0004.80
2023-05-16 13:50:00,,0835.5,4.99,0.00,28.5,27.0,00.0,36.8,30.1,29.2,0000.0,0009.09,0005.15,0004.67
2023-05-16 13:51:00,,0835.5,5.00,0.00,28.5,27.0,00.0,36.8,30.1,29.7,0000.0,0009.13,0005.01,0004.53
2023-05-16 13:52:00,,0835.5,5.00,0.00,28.5,27.1,00.0,36.8,30.2,30.4,0000.0,0009.05,0004.91,0004.42
2023-05-16 13:53:00,,0835.5,5.00,0.00,28.5,27.1,00.0,36.8,30.2,30.2,0000.0,0008.71,0004.91,0004.43
2023-05-16 13:54:00,,0835.5,5.00,0.00,28.5,27.1,00.0,36.8,30.2,29.6,0000.0,0008.80,0004.97,0004.47
2023-05-16 13:55:00,,0835.5,5.00,0.00,28.6,27.1,00.0,36.8,30.2,29.4,0000.0,0008.83,0005.03,0004.56
2023-05-16 13:56:00,,0835.5,5.01,0.00,28.6,27.1,00.0,36.8,30.2,29.7,0000.0,0008.98,0005.12,0004.64
2023-05-16 13:57:00,,0835.5,5.00,0.00,28.6,27.1,00.0,36.8,30.2,29.2,0000.0,0009.47,0005.27,0004.76
2023-05-16 13:58:00,,0835.6,5.00,0.00,28.6,27.1,00.0,36.8,30.2,29.2,0000.0,0009.83,0005.44,0004.91
2023-05-16 13:59:00,,0835.5,4.98,0.00,28.6,27.1,00.0,36.9,30.2,29.1,0000.3,0010.04,0005.61,0005.05
